^^
Grace C. Lehan Memorial Weather Station Historical Data
Daily Summary for January 5, 2021 Units:  Metric    English   Both
Daily Weekly Monthly Yearly
  High: Low: Average:
Temperature: 11.2 °C -0.8 °C 4.9 °C
Dew Point: 2.2 °C -2 °C -0.7 °C
Humidity: 93% 42.9% 70%
Wind Speed: 3.9km/h 0km/h 0.5km/h
Wind Gust: 17.7km/h - -
Wind- - SSW
Pressure: 1028.7 hPa 1023.9 hPa -
Precipitation: 0 mm    
 
 
Tabular Data for January 5, 2021
Time Temperature Dew Point Pressure Wind Wind Speed Wind Gust Humidity Rainfall Rate (Hourly) solar
00:00 2.6 °C -0.1 °C 1024.6 hPa Calm     83% 0 mm 0 W/m2
00:09 2.4 °C -0.1 °C 1024.6 hPa Calm     84% 0 mm 0 W/m2
00:14 2.3 °C -0.2 °C 1024.6 hPa Calm     84% 0 mm 0 W/m2
00:19 2.2 °C -0.2 °C 1024.6 hPa Calm     84.5% 0 mm 0 W/m2
00:24 2.1 °C -0.2 °C 1024.6 hPa Calm     85% 0 mm 0 W/m2
00:29 2 °C -0.2 °C 1024.6 hPa Calm     85.2% 0 mm 0 W/m2
00:34 1.9 °C -0.2 °C 1024.3 hPa Calm     86% 0 mm 0 W/m2
00:39 1.8 °C -0.2 °C 1024.3 hPa Calm     86% 0 mm 0 W/m2
00:44 1.7 °C -0.3 °C 1024.3 hPa Calm     86% 0 mm 0 W/m2
00:49 1.6 °C -0.4 °C 1024.3 hPa Calm     86% 0 mm 0 W/m2
00:54 1.5 °C -0.6 °C 1024.3 hPa Calm     86.2% 0 mm 0 W/m2
00:59 1.4 °C -0.5 °C 1024.3 hPa Calm     87% 0 mm 0 W/m2
01:04 1.4 °C -0.6 °C 1024.3 hPa Calm     87% 0 mm 0 W/m2
01:09 1.3 °C -0.6 °C 1024.3 hPa Calm     87% 0 mm 0 W/m2
01:14 1.3 °C -0.6 °C 1024.3 hPa Calm     87.3% 0 mm 0 W/m2
01:19 1.2 °C -0.6 °C 1024.3 hPa Calm     88% 0 mm 0 W/m2
01:24 1.2 °C -0.6 °C 1024.3 hPa Calm     88% 0 mm 0 W/m2
01:29 1.2 °C -0.6 °C 1024.3 hPa Calm     88% 0 mm 0 W/m2
01:34 1.1 °C -0.7 °C 1024.3 hPa Calm     88% 0 mm 0 W/m2
01:39 1.1 °C -0.7 °C 1024.3 hPa Calm     88% 0 mm 0 W/m2
01:44 1.1 °C -0.6 °C 1024.3 hPa Calm     88% 0 mm 0 W/m2
01:49 1.2 °C -0.6 °C 1023.9 hPa Calm     88% 0 mm 0 W/m2
01:54 1.2 °C -0.6 °C 1024.3 hPa Calm     88% 0 mm 0 W/m2
01:59 1.2 °C -0.6 °C 1024.3 hPa Calm     88% 0 mm 0 W/m2
02:04 1.1 °C -0.7 °C 1024.3 hPa Calm     88% 0 mm 0 W/m2
02:09 1.1 °C -0.7 °C 1024.3 hPa Calm     88% 0 mm 0 W/m2
02:14 1.1 °C -0.7 °C 1024.3 hPa Calm     88% 0 mm 0 W/m2
02:19 1 °C -0.8 °C 1024.3 hPa Calm     88% 0 mm 0 W/m2
02:24 0.9 °C -0.8 °C 1024.3 hPa Calm     88.2% 0 mm 0 W/m2
02:29 0.9 °C -0.8 °C 1024.3 hPa Calm     88.7% 0 mm 0 W/m2
02:34 0.8 °C -0.8 °C 1024.3 hPa Calm     89% 0 mm 0 W/m2
02:39 0.8 °C -0.8 °C 1024.3 hPa Calm     89% 0 mm 0 W/m2
02:44 0.8 °C -0.8 °C 1024.3 hPa Calm     89% 0 mm 0 W/m2
02:49 0.8 °C -0.8 °C 1024.3 hPa Calm     89% 0 mm 0 W/m2
02:54 0.8 °C -0.7 °C 1024.3 hPa Calm     89.6% 0 mm 0 W/m2
02:59 0.7 °C -0.8 °C 1024.3 hPa Calm     89.3% 0 mm 0 W/m2
03:04 0.7 °C -0.9 °C 1024.3 hPa Calm     89% 0 mm 0 W/m2
03:09 0.6 °C -1 °C 1024.3 hPa Calm     89% 0 mm 0 W/m2
03:14 0.6 °C -1.1 °C 1024.3 hPa Calm     89% 0 mm 0 W/m2
03:19 0.4 °C -1.1 °C 1024.3 hPa Calm     89% 0 mm 0 W/m2
03:24 0.4 °C -1.1 °C 1024.3 hPa Calm     89.7% 0 mm 0 W/m2
03:29 0.4 °C -1.1 °C 1024.3 hPa Calm     90% 0 mm 0 W/m2
03:34 0.3 °C -1.1 °C 1024.3 hPa Calm     90% 0 mm 0 W/m2
03:39 0.3 °C -1.2 °C 1024.3 hPa Calm     90% 0 mm 0 W/m2
03:44 0.2 °C -1.2 °C 1024.3 hPa Calm     90% 0 mm 0 W/m2
03:49 0.2 °C -1.3 °C 1024.3 hPa Calm     90% 0 mm 0 W/m2
03:54 0.2 °C -1.3 °C 1024.3 hPa Calm     90% 0 mm 0 W/m2
03:59 0.2 °C -1.3 °C 1024.3 hPa Calm     90% 0 mm 0 W/m2
04:00 0.2 °C -1.3 °C 1024.3 hPa Calm     90% 0 mm 0 W/m2
04:09 0.1 °C -1.4 °C 1024.3 hPa Calm     90% 0 mm 0 W/m2
04:14 0.1 °C -1.4 °C 1024.3 hPa Calm     90.2% 0 mm 0 W/m2
04:19 0 °C -1.3 °C 1024.6 hPa Calm     90.9% 0 mm 0 W/m2
04:24 -0.1 °C -1.3 °C 1024.6 hPa Calm     91% 0 mm 0 W/m2
04:29 -0.1 °C -1.3 °C 1024.3 hPa Calm     91% 0 mm 0 W/m2
04:34 -0.1 °C -1.4 °C 1024.3 hPa Calm     91% 0 mm 0 W/m2
04:39 -0.1 °C -1.4 °C 1024.6 hPa Calm     91% 0 mm 0 W/m2
04:44 -0.2 °C -1.4 °C 1024.6 hPa Calm     91% 0 mm 0 W/m2
04:49 -0.2 °C -1.5 °C 1024.6 hPa Calm     91% 0 mm 0 W/m2
04:54 -0.3 °C -1.6 °C 1024.6 hPa Calm     91% 0 mm 0 W/m2
04:59 -0.3 °C -1.6 °C 1024.6 hPa Calm     91% 0 mm 0 W/m2
05:04 -0.3 °C -1.6 °C 1024.6 hPa Calm     91% 0 mm 0 W/m2
05:09 -0.4 °C -1.7 °C 1024.6 hPa Calm     91% 0 mm 0 W/m2
05:14 -0.4 °C -1.7 °C 1024.6 hPa Calm     91% 0 mm 0 W/m2
05:19 -0.4 °C -1.7 °C 1024.6 hPa Calm     91% 0 mm 0 W/m2
05:24 -0.4 °C -1.6 °C 1024.6 hPa Calm     91.8% 0 mm 0 W/m2
05:29 -0.3 °C -1.4 °C 1024.9 hPa Calm     92% 0 mm 0 W/m2
05:34 -0.4 °C -1.5 °C 1024.9 hPa Calm     92% 0 mm 0 W/m2
05:39 -0.4 °C -1.6 °C 1024.9 hPa Calm     92% 0 mm 0 W/m2
05:44 -0.4 °C -1.7 °C 1024.9 hPa Calm     91.2% 0 mm 0 W/m2
05:49 -0.5 °C -1.7 °C 1025.3 hPa Calm     91.1% 0 mm 0 W/m2
05:54 -0.5 °C -1.6 °C 1025.3 hPa Calm     92% 0 mm 0 W/m2
05:59 -0.5 °C -1.7 °C 1025.3 hPa Calm     92% 0 mm 0 W/m2
06:04 -0.5 °C -1.7 °C 1025.3 hPa Calm     92% 0 mm 0 W/m2
06:09 -0.6 °C -1.7 °C 1025.3 hPa Calm     92% 0 mm 0 W/m2
06:14 -0.6 °C -1.7 °C 1025.3 hPa Calm     92% 0 mm 0 W/m2
06:19 -0.6 °C -1.7 °C 1025.6 hPa Calm     92% 0 mm 0 W/m2
06:24 -0.6 °C -1.8 °C 1025.6 hPa Calm     92% 0 mm 0 W/m2
06:29 -0.7 °C -1.8 °C 1025.3 hPa Calm     92% 0 mm 0 W/m2
06:34 -0.7 °C -1.8 °C 1025.6 hPa Calm     92% 0 mm 0 W/m2
06:39 -0.7 °C -1.8 °C 1025.6 hPa Calm     92% 0 mm 0 W/m2
06:44 -0.8 °C -1.9 °C 1025.6 hPa Calm     92% 0 mm 0 W/m2
06:49 -0.8 °C -1.9 °C 1025.6 hPa Calm     92% 0 mm 0 W/m2
06:54 -0.8 °C -1.9 °C 1025.6 hPa Calm     92% 0 mm 0 W/m2
06:59 -0.8 °C -1.9 °C 1026 hPa Calm     92% 0 mm 0 W/m2
07:04 -0.8 °C -2 °C 1026 hPa Calm     92% 0 mm 0 W/m2
07:09 -0.8 °C -2 °C 1026 hPa Calm     92% 0 mm 0 W/m2
07:14 -0.8 °C -2 °C 1026 hPa Calm     92% 0 mm 0 W/m2
07:19 -0.8 °C -2 °C 1026 hPa Calm     92% 0 mm 0 W/m2
07:24 -0.8 °C -2 °C 1026 hPa Calm     92% 0 mm 0 W/m2
07:29 -0.8 °C -1.9 °C 1026.3 hPa Calm     92% 0 mm 0 W/m2
07:34 -0.8 °C -1.9 °C 1026.3 hPa Calm     92% 0 mm 5 W/m2
07:39 -0.8 °C -2 °C 1026.3 hPa Calm     92% 0 mm 9 W/m2
07:44 -0.8 °C -1.9 °C 1026.3 hPa Calm     92% 0 mm 12 W/m2
07:49 -0.8 °C -1.9 °C 1026.3 hPa Calm     92% 0 mm 16 W/m2
07:54 -0.8 °C -2 °C 1026.3 hPa Calm     92% 0 mm 19 W/m2
07:59 -0.8 °C -1.8 °C 1026.3 hPa Calm     92.8% 0 mm 21 W/m2
08:09 -0.7 °C -1.7 °C 1026.6 hPa Calm     93% 0 mm 35 W/m2
08:14 -0.5 °C -1.5 °C 1026.6 hPa Calm     93% 0 mm 35 W/m2
08:19 -0.3 °C -1.3 °C 1026.6 hPa Calm     93% 0 mm 30 W/m2
08:24 -0.2 °C -1.2 °C 1026.6 hPa Calm   1.6 km/h 93% 0 mm 39 W/m2
08:29 -0.1 °C -1.1 °C 1027 hPa Calm   1.6 km/h 93% 0 mm 33 W/m2
08:34 0.1 °C -0.9 °C 1027 hPa Calm   1.6 km/h 93% 0 mm 56 W/m2
08:39 0.2 °C -0.8 °C 1027 hPa Calm     93% 0 mm 49 W/m2
08:44 0.3 °C -0.7 °C 1027 hPa Calm     93% 0 mm 49 W/m2
08:49 0.5 °C -0.5 °C 1027 hPa Calm     93% 0 mm 54 W/m2
08:54 0.7 °C -0.3 °C 1027 hPa Calm     93% 0 mm 86 W/m2
08:59 0.9 °C -0.1 °C 1027.3 hPa Calm     93% 0 mm 195 W/m2
09:04 1.2 °C 0.2 °C 1027.3 hPa Calm     93% 0 mm 253 W/m2
09:09 1.8 °C 0.7 °C 1027.3 hPa Calm     92.5% 0 mm 265 W/m2
09:14 2.4 °C 1.1 °C 1027.3 hPa Calm     91.2% 0 mm 278 W/m2
09:19 3.1 °C 1.5 °C 1027.3 hPa Calm     89.2% 0 mm 295 W/m2
09:24 3.8 °C 1.7 °C 1027.3 hPa NNW 0.5 km/h 9.7 km/h 85.9% 0 mm 306 W/m2
09:29 4.4 °C 1.7 °C 1027.3 hPa NNW 2.4 km/h 9.7 km/h 82.5% 0 mm 322 W/m2
09:34 4.9 °C 1.8 °C 1027.7 hPa NW 0.5 km/h 9.7 km/h 80.4% 0 mm 339 W/m2
09:39 5.4 °C 1.9 °C 1027.7 hPa NNW 0.6 km/h 8 km/h 78.2% 0 mm 355 W/m2
09:44 5.9 °C 2.1 °C 1027.3 hPa NNW 0.3 km/h 8 km/h 76.5% 0 mm 367 W/m2
09:49 6.4 °C 2.2 °C 1027.3 hPa NNW 1 km/h 8 km/h 74.5% 0 mm 378 W/m2
09:54 6.7 °C 2.1 °C 1027.3 hPa North 1 km/h 8 km/h 72.1% 0 mm 388 W/m2
09:59 7 °C 2 °C 1027.7 hPa North 1.8 km/h 8 km/h 70.5% 0 mm 397 W/m2
10:04 7.1 °C 1.8 °C 1027.7 hPa NNE 1.1 km/h 8 km/h 69.1% 0 mm 415 W/m2
10:09 7.3 °C 1.9 °C 1027.7 hPa North 1.3 km/h 6.4 km/h 68.9% 0 mm 422 W/m2
10:14 7.4 °C 1.8 °C 1027.7 hPa NNW 1.8 km/h 11.3 km/h 67.5% 0 mm 434 W/m2
10:19 7.6 °C 1.7 °C 1027.7 hPa North 1.6 km/h 11.3 km/h 66.5% 0 mm 434 W/m2
10:24 7.6 °C 1.7 °C 1027.7 hPa North 1.6 km/h 11.3 km/h 66% 0 mm 276 W/m2
10:29 7.5 °C 1.4 °C 1027.7 hPa East 0.5 km/h 11.3 km/h 65.2% 0 mm 404 W/m2
10:34 7.4 °C 1.5 °C 1027.7 hPa NE 1.3 km/h 11.3 km/h 66% 0 mm 424 W/m2
10:39 7.5 °C 1.6 °C 1027.7 hPa North 1.6 km/h 9.7 km/h 66.2% 0 mm 468 W/m2
10:44 7.6 °C 1.6 °C 1027.7 hPa NW 2.1 km/h 9.7 km/h 66% 0 mm 494 W/m2
10:49 7.6 °C 1.4 °C 1027.7 hPa NNW 3.2 km/h 16.1 km/h 64.8% 0 mm 503 W/m2
10:54 7.7 °C 1.2 °C 1027.7 hPa NNW 0.6 km/h 16.1 km/h 63.7% 0 mm 506 W/m2
10:59 7.8 °C 1.3 °C 1027.7 hPa NW 1.6 km/h 16.1 km/h 63.4% 0 mm 425 W/m2
11:04 7.9 °C 1.2 °C 1027.7 hPa NNW 1.8 km/h 16.1 km/h 62.4% 0 mm 155 W/m2
11:09 8 °C 1.1 °C 1027.7 hPa NNE 1.6 km/h 9.7 km/h 61.8% 0 mm 533 W/m2
11:14 8.2 °C 1.2 °C 1027.7 hPa NE 0.3 km/h 9.7 km/h 61.5% 0 mm 540 W/m2
11:19 8.4 °C 1.3 °C 1027.7 hPa NNE 0.5 km/h 9.7 km/h 60.8% 0 mm 547 W/m2
11:24 8.8 °C 1.4 °C 1027.7 hPa NNW 2.9 km/h 14.5 km/h 59.8% 0 mm 554 W/m2
11:29 9.2 °C 1.7 °C 1027.7 hPa NW 2.3 km/h 14.5 km/h 59.7% 0 mm 561 W/m2
11:34 9.6 °C 1.6 °C 1027.7 hPa North 0.5 km/h 14.5 km/h 57.6% 0 mm 566 W/m2
11:39 9.8 °C 1.5 °C 1027.7 hPa NW 3.9 km/h 16.1 km/h 56.2% 0 mm 570 W/m2
11:44 10 °C 1.7 °C 1027.7 hPa ENE 1.4 km/h 16.1 km/h 56.4% 0 mm 461 W/m2
11:49 10.2 °C 1.7 °C 1027.7 hPa NE 1 km/h 16.1 km/h 55.5% 0 mm 417 W/m2
11:54 10.3 °C 2 °C 1027.7 hPa NW 0.8 km/h 16.1 km/h 56.3% 0 mm 396 W/m2
11:59 10.3 °C 1.6 °C 1027.3 hPa NE 1.8 km/h 16.1 km/h 54.7% 0 mm 311 W/m2
12:00 10.2 °C 1.3 °C 1027.3 hPa Calm   16.1 km/h 54% 0 mm 40 W/m2
12:09 10 °C 1.1 °C 1027.3 hPa NNW 3.9 km/h 14.5 km/h 54% 0 mm 566 W/m2
12:14 9.9 °C 1.1 °C 1027.3 hPa NNE 1.6 km/h 14.5 km/h 54.2% 0 mm 515 W/m2
12:19 9.9 °C 1.1 °C 1027.3 hPa NE 2.7 km/h 14.5 km/h 54.2% 0 mm 475 W/m2
12:24 9.8 °C 1.1 °C 1027.3 hPa NNE 1 km/h 14.5 km/h 54.7% 0 mm 146 W/m2
12:29 9.8 °C 0.7 °C 1027 hPa ENE 0.8 km/h 14.5 km/h 53.2% 0 mm 76 W/m2
12:34 9.8 °C 0.9 °C 1027 hPa NE 1.4 km/h 14.5 km/h 53.9% 0 mm 299 W/m2
12:39 9.9 °C 0.9 °C 1027 hPa NNE 3.1 km/h 11.3 km/h 53.7% 0 mm 183 W/m2
12:44 9.9 °C 0.7 °C 1027 hPa ENE 1.3 km/h 11.3 km/h 52.4% 0 mm 364 W/m2
12:49 10.1 °C 0.7 °C 1027 hPa NE 1.4 km/h 11.3 km/h 52.1% 0 mm 413 W/m2
12:54 10.2 °C 0.6 °C 1027 hPa North 0.8 km/h 16.1 km/h 51.5% 0 mm 432 W/m2
12:59 10.2 °C 0.7 °C 1027 hPa NW 3.4 km/h 16.1 km/h 51.6% 0 mm 248 W/m2
13:04 10.2 °C 0.6 °C 1026.6 hPa NW 1.4 km/h 17.7 km/h 51.3% 0 mm 522 W/m2
13:09 10.2 °C 0.2 °C 1026.3 hPa NNW 3.2 km/h 17.7 km/h 49.7% 0 mm 366 W/m2
13:14 10.2 °C -0.1 °C 1026.3 hPa NE 0.3 km/h 17.7 km/h 48.6% 0 mm 251 W/m2
13:19 10.3 °C -0.4 °C 1026.3 hPa NE 2.1 km/h 17.7 km/h 47.4% 0 mm 397 W/m2
13:24 10.4 °C -0.4 °C 1026.3 hPa ENE 0.5 km/h 17.7 km/h 47% 0 mm 543 W/m2
13:29 10.5 °C -0.9 °C 1026 hPa North 0.5 km/h 17.7 km/h 45.2% 0 mm 550 W/m2
13:34 10.6 °C -0.6 °C 1026 hPa ENE 2.1 km/h 17.7 km/h 45.9% 0 mm 578 W/m2
13:39 10.4 °C -0.8 °C 1026 hPa ENE 1.3 km/h 8 km/h 45.5% 0 mm 485 W/m2
13:44 10.4 °C -0.6 °C 1026 hPa NE 1.8 km/h 8 km/h 46.4% 0 mm 246 W/m2
13:49 10.6 °C -0.6 °C 1026 hPa NE 0.8 km/h 8 km/h 45.8% 0 mm 192 W/m2
13:54 10.6 °C -0.9 °C 1026 hPa NW 2.1 km/h 17.7 km/h 44.8% 0 mm 492 W/m2
13:59 10.6 °C -0.7 °C 1026 hPa NW 1 km/h 17.7 km/h 45.5% 0 mm 520 W/m2
14:04 10.6 °C -1.1 °C 1026 hPa NE 3.4 km/h 17.7 km/h 44.1% 0 mm 466 W/m2
14:09 10.5 °C -1.4 °C 1026 hPa ENE 3.1 km/h 11.3 km/h 43.2% 0 mm 461 W/m2
14:14 10.4 °C -1.2 °C 1026 hPa NE 3.5 km/h 11.3 km/h 44.3% 0 mm 355 W/m2
14:19 10.5 °C -1.2 °C 1025.6 hPa ENE 0.6 km/h 11.3 km/h 44.3% 0 mm 132 W/m2
14:24 10.6 °C -1.1 °C 1025.6 hPa NNE 0.8 km/h 11.3 km/h 44.2% 0 mm 220 W/m2
14:29 10.7 °C -0.8 °C 1025.6 hPa NNE 0.2 km/h 11.3 km/h 44.6% 0 mm 218 W/m2
14:34 10.9 °C -0.7 °C 1025.6 hPa NNW 0.5 km/h 11.3 km/h 44.4% 0 mm 348 W/m2
14:39 11.2 °C -0.4 °C 1025.6 hPa ENE 1.4 km/h 8 km/h 44.8% 0 mm 396 W/m2
14:44 11.2 °C -0.8 °C 1025.6 hPa ENE 0.8 km/h 8 km/h 43.4% 0 mm 297 W/m2
14:49 11.2 °C -0.8 °C 1025.6 hPa ENE 1.3 km/h 9.7 km/h 43.5% 0 mm 343 W/m2
14:54 11.2 °C -0.9 °C 1025.6 hPa ENE 0.6 km/h 9.7 km/h 43.2% 0 mm 251 W/m2
14:59 11.1 °C -0.8 °C 1025.6 hPa ENE 0.8 km/h 9.7 km/h 43.5% 0 mm 190 W/m2
15:04 11 °C -1.2 °C 1025.6 hPa ENE 0.5 km/h 9.7 km/h 42.9% 0 mm 287 W/m2
15:09 10.9 °C -0.8 °C 1025.3 hPa ENE 1.1 km/h 6.4 km/h 44.4% 0 mm 127 W/m2
15:14 10.8 °C -0.8 °C 1025.3 hPa ENE 1.9 km/h 6.4 km/h 44.6% 0 mm 366 W/m2
15:19 10.8 °C -0.8 °C 1025.3 hPa ENE 0.5 km/h 6.4 km/h 44.3% 0 mm 385 W/m2
15:24 10.9 °C -0.9 °C 1025.3 hPa ENE 2.3 km/h 9.7 km/h 44% 0 mm 390 W/m2
15:29 10.9 °C -0.7 °C 1025.3 hPa ENE 0.2 km/h 9.7 km/h 44.6% 0 mm 360 W/m2
15:34 10.9 °C -0.6 °C 1025.3 hPa NE 1 km/h 9.7 km/h 45% 0 mm 302 W/m2
15:39 10.8 °C -0.6 °C 1025.3 hPa NNE 0.5 km/h 4.8 km/h 45% 0 mm 32 W/m2
15:44 10.8 °C -0.8 °C 1025.3 hPa Calm   4.8 km/h 44.7% 0 mm 30 W/m2
15:49 10.7 °C -0.6 °C 1025.3 hPa NNE 1.1 km/h 6.4 km/h 45.5% 0 mm 28 W/m2
15:54 10.7 °C -0.4 °C 1025.3 hPa Calm   6.4 km/h 46.4% 0 mm 28 W/m2
15:59 10.6 °C -0.7 °C 1025.3 hPa North 0.2 km/h 6.4 km/h 45.6% 0 mm 26 W/m2
16:00 10.6 °C -0.9 °C 1025.3 hPa Calm   6.4 km/h 45% 0 mm 26 W/m2
16:09 10.5 °C -0.9 °C 1025.3 hPa Calm   1.6 km/h 45% 0 mm 28 W/m2
16:14 10.5 °C -0.7 °C 1025.3 hPa North 0.2 km/h 1.6 km/h 45.9% 0 mm 26 W/m2
16:19 10.4 °C -0.7 °C 1025.3 hPa NNW 0.6 km/h 6.4 km/h 46% 0 mm 25 W/m2
16:24 10.4 °C -0.7 °C 1025.3 hPa Calm   6.4 km/h 46.1% 0 mm 23 W/m2
16:29 10.4 °C -0.8 °C 1025.3 hPa NW 0.8 km/h 6.4 km/h 45.7% 0 mm 21 W/m2
16:34 10.3 °C -0.9 °C 1025.3 hPa NNW 1.3 km/h 8 km/h 45.5% 0 mm 21 W/m2
16:39 10.3 °C -1.1 °C 1025.3 hPa North 0.5 km/h 8 km/h 45% 0 mm 19 W/m2
16:44 10.2 °C -1 °C 1025.6 hPa NNW 0.8 km/h 8 km/h 45.6% 0 mm 19 W/m2
16:49 10.2 °C -1.1 °C 1025.6 hPa NNW 0.6 km/h 8 km/h 45.4% 0 mm 18 W/m2
16:54 10.2 °C -1.2 °C 1025.6 hPa Calm   8 km/h 45% 0 mm 18 W/m2
16:59 10.2 °C -1.2 °C 1026 hPa Calm   8 km/h 45% 0 mm 16 W/m2
17:04 10.1 °C -1.2 °C 1026 hPa Calm   8 km/h 45.3% 0 mm 14 W/m2
17:09 10.1 °C -1.1 °C 1026 hPa Calm   1.6 km/h 46% 0 mm 14 W/m2
17:14 9.9 °C -0.9 °C 1026 hPa Calm   1.6 km/h 46.5% 0 mm 12 W/m2
17:19 9.9 °C -1 °C 1026.3 hPa NNW 0.3 km/h 1.6 km/h 46.7% 0 mm 11 W/m2
17:24 9.8 °C -0.9 °C 1026.3 hPa Calm   1.6 km/h 47.2% 0 mm 9 W/m2
17:29 9.7 °C -0.7 °C 1026.3 hPa NNW 0.3 km/h 4.8 km/h 48.2% 0 mm 7 W/m2
17:34 9.6 °C -0.8 °C 1026.3 hPa NNW 0.3 km/h 4.8 km/h 48% 0 mm 5 W/m2
17:39 9.5 °C -0.9 °C 1026.6 hPa Calm   4.8 km/h 48% 0 mm 0 W/m2
17:44 9.4 °C -1.1 °C 1026.6 hPa Calm   4.8 km/h 48% 0 mm 0 W/m2
17:49 9.3 °C -1.1 °C 1026.6 hPa Calm   4.8 km/h 48.3% 0 mm 0 W/m2
17:54 9.1 °C -1.1 °C 1026.6 hPa NNW 0.3 km/h 4.8 km/h 49% 0 mm 0 W/m2
17:59 8.9 °C -1.1 °C 1026.6 hPa NNW 0.2 km/h 4.8 km/h 49.5% 0 mm 0 W/m2
18:04 8.8 °C -1.1 °C 1027 hPa Calm   4.8 km/h 50% 0 mm 0 W/m2
18:09 8.6 °C -1.2 °C 1027 hPa NNW 0.2 km/h 1.6 km/h 50% 0 mm 0 W/m2
18:14 8.4 °C -1.1 °C 1027 hPa Calm   1.6 km/h 51% 0 mm 0 W/m2
18:19 8.3 °C -1.2 °C 1027 hPa NNW 0.2 km/h 3.2 km/h 51% 0 mm 0 W/m2
18:24 8.2 °C -1.3 °C 1027 hPa Calm   3.2 km/h 51.1% 0 mm 0 W/m2
18:29 8 °C -1.2 °C 1027.3 hPa Calm   3.2 km/h 52% 0 mm 0 W/m2
18:34 7.9 °C -1.4 °C 1027.3 hPa Calm   3.2 km/h 52% 0 mm 0 W/m2
18:39 7.7 °C -1.5 °C 1027.3 hPa NNW 0.2 km/h 3.2 km/h 52% 0 mm 0 W/m2
18:44 7.6 °C -1.6 °C 1027.7 hPa NNW 0.2 km/h 3.2 km/h 52.3% 0 mm 0 W/m2
18:49 7.5 °C -1.4 °C 1027.7 hPa NNW 0.2 km/h 3.2 km/h 53% 0 mm 0 W/m2
18:54 7.4 °C -1.3 °C 1027.7 hPa NNW 0.5 km/h 4.8 km/h 53.8% 0 mm 0 W/m2
18:59 7.3 °C -1.5 °C 1027.7 hPa Calm   4.8 km/h 53.7% 0 mm 0 W/m2
19:04 7.2 °C -1.5 °C 1027.7 hPa NNW 0.5 km/h 4.8 km/h 54% 0 mm 0 W/m2
19:09 7.1 °C -1.6 °C 1028 hPa NNW 0.6 km/h 4.8 km/h 54% 0 mm 0 W/m2
19:14 7.1 °C -1.6 °C 1028 hPa NW 1 km/h 8 km/h 54.3% 0 mm 0 W/m2
19:19 6.9 °C -1.7 °C 1028 hPa NW 0.3 km/h 8 km/h 54.2% 0 mm 0 W/m2
19:24 6.9 °C -1.8 °C 1028.3 hPa Calm   8 km/h 54% 0 mm 0 W/m2
19:29 6.8 °C -1.8 °C 1028.3 hPa Calm   8 km/h 54% 0 mm 0 W/m2
19:34 6.8 °C -1.8 °C 1028.3 hPa Calm   8 km/h 54% 0 mm 0 W/m2
19:39 6.8 °C -1.7 °C 1028.3 hPa Calm     54.7% 0 mm 0 W/m2
19:44 6.8 °C -1.8 °C 1028.3 hPa Calm     54.4% 0 mm 0 W/m2
19:49 6.7 °C -1.7 °C 1028.7 hPa Calm     55% 0 mm 0 W/m2
19:54 6.7 °C -1.7 °C 1028.7 hPa Calm     55% 0 mm 0 W/m2
19:59 6.6 °C -1.7 °C 1028.3 hPa Calm     55.3% 0 mm 0 W/m2
20:00 6.6 °C -1.6 °C 1028.3 hPa Calm     56% 0 mm 0 W/m2
20:09 6.4 °C -1.7 °C 1028.3 hPa Calm     56% 0 mm 0 W/m2
20:14 6.4 °C -1.7 °C 1028.3 hPa NW 0.2 km/h 1.6 km/h 56.3% 0 mm 0 W/m2
20:19 6.3 °C -1.7 °C 1028.3 hPa Calm   1.6 km/h 56.5% 0 mm 0 W/m2
20:24 6.3 °C -1.6 °C 1028.3 hPa Calm   1.6 km/h 57% 0 mm 0 W/m2
20:29 6.2 °C -1.6 °C 1028.3 hPa Calm   1.6 km/h 57.3% 0 mm 0 W/m2
20:34 6.1 °C -1.6 °C 1028.3 hPa Calm   1.6 km/h 58.1% 0 mm 0 W/m2
20:39 6 °C -1.7 °C 1028.3 hPa Calm     57.8% 0 mm 0 W/m2
20:44 5.9 °C -1.6 °C 1028.3 hPa Calm     58.6% 0 mm 0 W/m2
20:49 5.8 °C -1.5 °C 1028.3 hPa Calm     59.2% 0 mm 0 W/m2
20:54 5.7 °C -1.6 °C 1028.3 hPa Calm     59.4% 0 mm 0 W/m2
20:59 5.6 °C -1.7 °C 1028.3 hPa Calm     59.3% 0 mm 0 W/m2
21:04 5.5 °C -1.6 °C 1028.3 hPa Calm     60% 0 mm 0 W/m2
21:09 5.4 °C -1.5 °C 1028.3 hPa Calm     61% 0 mm 0 W/m2
21:14 5.4 °C -1.6 °C 1028.3 hPa Calm     61% 0 mm 0 W/m2
21:19 5.3 °C -1.6 °C 1028 hPa Calm     61% 0 mm 0 W/m2
21:24 5.2 °C -1.7 °C 1028 hPa Calm     61% 0 mm 0 W/m2
21:29 5.2 °C -1.5 °C 1028.3 hPa Calm     62.2% 0 mm 0 W/m2
21:34 5.1 °C -1.4 °C 1028.3 hPa Calm     62.7% 0 mm 0 W/m2
21:39 5 °C -1.2 °C 1028.3 hPa Calm     64% 0 mm 0 W/m2
21:44 4.9 °C -1.2 °C 1028.3 hPa Calm     64.5% 0 mm 0 W/m2
21:49 4.8 °C -1.2 °C 1028.3 hPa Calm     64.9% 0 mm 0 W/m2
21:54 4.7 °C -1.2 °C 1028.3 hPa Calm     65.4% 0 mm 0 W/m2
21:59 4.6 °C -1.4 °C 1028.3 hPa Calm     65% 0 mm 0 W/m2
22:04 4.4 °C -1.5 °C 1028.3 hPa Calm     65.3% 0 mm 0 W/m2
22:09 4.3 °C -1.3 °C 1028.3 hPa Calm     66.6% 0 mm 0 W/m2
22:14 4.2 °C -1.1 °C 1028.3 hPa Calm     68.9% 0 mm 0 W/m2
22:19 3.9 °C -1 °C 1028.3 hPa Calm     70% 0 mm 0 W/m2
22:24 3.8 °C -1.1 °C 1028.3 hPa Calm     70.8% 0 mm 0 W/m2
22:29 3.7 °C -1.1 °C 1028.3 hPa Calm     71% 0 mm 0 W/m2
22:34 3.6 °C -1.2 °C 1028.3 hPa Calm     71% 0 mm 0 W/m2
22:39 3.5 °C -1.1 °C 1028.3 hPa Calm     72% 0 mm 0 W/m2
22:44 3.4 °C -1.2 °C 1028.3 hPa Calm     72% 0 mm 0 W/m2
22:49 3.3 °C -1.1 °C 1028.3 hPa Calm     72.7% 0 mm 0 W/m2
22:54 3.2 °C -1.2 °C 1028.3 hPa Calm     73% 0 mm 0 W/m2
22:59 3.1 °C -1.2 °C 1028.3 hPa Calm     73.2% 0 mm 0 W/m2
23:04 3.1 °C -1.2 °C 1028.3 hPa Calm     74% 0 mm 0 W/m2
23:09 2.9 °C -1.2 °C 1028.3 hPa Calm     74% 0 mm 0 W/m2
23:14 2.8 °C -1.2 °C 1028.3 hPa Calm     74.7% 0 mm 0 W/m2
23:19 2.8 °C -1.2 °C 1028.3 hPa Calm     75% 0 mm 0 W/m2
23:24 2.7 °C -1.2 °C 1028.3 hPa Calm     75.1% 0 mm 0 W/m2
23:29 2.7 °C -1.1 °C 1028.3 hPa Calm     76.1% 0 mm 0 W/m2
23:34 2.6 °C -1.1 °C 1028.3 hPa Calm     77% 0 mm 0 W/m2
23:39 2.6 °C -1 °C 1028.3 hPa Calm     77.4% 0 mm 0 W/m2
23:44 2.4 °C -1 °C 1028.3 hPa Calm     78% 0 mm 0 W/m2
23:49 2.3 °C -1 °C 1028.3 hPa Calm     78.7% 0 mm 0 W/m2
23:54 2.3 °C -0.9 °C 1028.3 hPa Calm     79.3% 0 mm 0 W/m2
23:59 2.2 °C -0.8 °C 1028.3 hPa Calm     80.3% 0 mm 0 W/m2
Hartford County Weather
Compliments of Weather Underground - 2 mb